スキッフ彗星

305P/Skiff (2014)

English version
Home page
Updated on August 22, 2016

---------------------------------------------------------------------

・ プロフィール

符号 305P/2014 N1
検出日 2013年7月3日
検出光度 21.9等
検出者 Pan-STARRS 1 telescope (Haleakala)

・ 写真集

・ 軌道要素

Epoch 2014 Dec. 9.0 TT = JDT 2457000.5
T 2014 Nov. 19.75947 TT                                 MPCW
q   1.4031025            (2000.0)            P               Q
n   0.09946802     Peri.  144.98991     +0.88091886     -0.43912053
a   4.6133215      Node   241.99264     +0.37564456     +0.87561979
e   0.6958585      Incl.   11.53237     +0.28787693     +0.20115451
P   9.91
From 509 observations 2004 Oct. 7-2015 Mar. 9, mean residual 0".8.
     Nongravitational parameters A1 = +0.06, A2 = -0.0171.

・ 星図

・ 光度変化

        m1 = 13.5 + 5 logΔ + 17.0 log r(t - 65)

---------------------------------------------------------------------

軌道要素はM.P.E.C. 2016-Q04に掲載されたものです。
星図はステラナビゲータ Ver.8 (アストロアーツ) で作成したものです。
光度グラフはComet for Windowsで作成したものです。

---------------------------------------------------------------------

Copyright(C) Seiichi Yoshida (comet@aerith.net). All rights reserved.